STARLINK-31997, 60288

Orbit data source: Space-Track

STARLINK-31997, 60288 is a payload satellite owned by SpaceX/Seattle (US) in LEO that was launched on Sun, 28 Jul 2024 UTC via an FALCON 9 launch vehicle from the Air Force Eastern Test Range (AFETR). Payload-class satellites include a variety of spacecraft equipped with specific instruments for various scientific and technological missions. These include communications satellites like Starlink; space stations such as the ISS; scientific satellites like the Hubble; Earth observation satellites from companies like Planet Labs, Umbra, and HawkEye 360; GPS; miniature CubeSats for education and research; and military/defense satellites.

Loading next visibility...
Identifier
60288, 2024-132L
Orbit
LEO
Country
Flag of USUS
Related business
Manufacturer
SpaceX/Seattle
Mission
Operational spacecraft
Bus & Motor
STARLINK V2M, Unknown motor
Mass
730 kg wet, ~700 kg dry
Launch date (UTC)
2024-07-28 (1 year ago)
Launch vehicle
FALCON 9
Launch site
Air Force Eastern Test Range (AFETR)
Object type
Payload
Rocket body
Debris
Shape & HBR
Unknown
Radar Cross Section
Large (>1 m²)

Expand to show TLE details & history
Last TLE update: 1 day ago

TLE from 1 day ago
0 STARLINK-31997
1 60288U 24132L   25261.05368713  .00001551  00000-0  64484-4 0  9997
2 60288  53.1593 133.9799 0001133  68.8064 291.3058 15.30193632 65139
Epoch: 2025-09-18T01:17Z
TLE epoch observation values (Epoch: 2025-09-18T01:17:18.568Z)
Latitude
0.00002°
Longitude
117.43175°
Altitude
475.852 km
Speed
7.629 km/s
True Right ascension
08h 55m 55s
True Declination
0° 00' 00"
Sunlit
Object was in daylight at epoch
Visualization orbit readout
Latitude
Unknown
Longitude
Unknown
Altitude
Unknown
Speed
Unknown
Apparent Right ascension
Unknown
Apparent Declination
Unknown
Sunlit
N/A
Visualization observer readout
Local Sidereal Time
21:19:42
Azimuth
Unknown
Elevation
Unknown
Doppler factor
Unknown
Orbital elements
Apogee altitude
476.267 km
Perigee altitude
474.714 km
Semi-major axis
6,853.628 km
Eccentricity
0.00011
Inclination
53.1593°
RAAN
133.9799°
Arg. of periapsis
68.8064°
True anomaly
291.2937°
Mean anomaly
291.3058°
Eccentric anomaly
291.29975°
Mean motion
3.82527 °/min
Orbital period
94.11 mins
BSTAR
0.000064484
Loading maneuver chart data...
Computing Atmospheric mass density...
Loading historical data...
Loading historical data...
Loading historical data...
Loading historical data...
Loading historical data...
Loading historical data...
Loading historical data...

Documentation

Showing up to 5 results
|